Theta_e
318 318 318 318 318 318 317 317 316 317 318 316 317 316 317 318 318 308 298 306 314 331 325 304 303 301 301 300 300 296 290 286 291 290 294 297 298 302 304 325 326 331 328 329 339
318 317 317 317 318 318 317 318 318 318 317 318 318 317 317 319 306 304 316 326 332 330 304 302 297 300 298 296 297 294 289 290 294 294 293 297 295 300 301 315 321 319 329 334 338
317 317 317 317 317 318 317 318 318 318 318 317 317 316 316 316 299 305 334 330 332 330 305 303 299 297 299 299 294 291 291 294 297 297 296 296 298 299 298 297 302 304 322 330 333
316 316 316 316 316 317 317 318 318 318 318 316 316 315 318 307 296 304 340 338 334 319 303 299 297 294 295 295 292 294 295 295 297 297 296 295 297 298 298 302 304 304 313 329 330
316 315 315 315 316 316 316 317 317 317 317 316 316 316 309 294 298 313 337 336 316 305 302 298 295 298 295 293 293 292 294 295 297 297 295 296 296 296 298 303 304 307 323 326 327
315 315 315 315 315 316 316 317 317 316 317 319 316 317 302 292 303 317 312 309 306 303 301 298 298 299 295 292 292 294 293 295 295 295 293 294 296 296 301 302 303 309 318 323 325
315 314 314 314 315 315 316 316 316 316 318 319 317 315 300 298 311 313 306 302 304 304 301 300 300 298 295 293 294 294 291 293 293 293 294 294 294 294 301 300 300 302 313 318 322
315 314 314 314 315 315 315 315 316 316 318 319 319 310 296 304 309 309 307 308 306 302 302 302 302 298 295 295 296 291 288 286 293 295 295 294 290 298 300 298 299 300 301 312 321
314 314 313 314 314 315 315 315 316 319 319 320 310 306 302 317 311 311 309 305 308 305 305 309 300 295 295 290 287 288 285 286 291 294 294 293 291 298 301 299 298 299 299 300 316
314 313 313 313 314 314 313 315 320 317 316 317 314 299 305 306 310 309 306 306 305 303 301 300 295 292 290 289 283 285 285 286 288 293 293 291 291 296 299 298 297 297 300 305 316
314 313 313 313 314 313 309 304 300 298 305 299 300 304 307 313 310 306 307 306 305 301 293 295 292 288 290 291 291 290 288 288 292 295 291 292 291 296 298 298 298 296 307 317 320
313 313 313 313 313 312 304 302 302 301 296 303 305 308 311 310 302 304 306 300 299 293 294 293 289 294 295 294 293 291 288 289 293 296 292 294 293 295 297 301 304 306 307 315 319
312 312 312 312 311 304 303 304 305 301 294 300 304 304 303 306 301 302 303 300 296 292 291 290 294 298 296 294 293 290 289 290 291 295 294 292 291 293 296 302 308 309 313 318 322
312 312 312 311 303 299 302 306 305 303 292 298 300 302 302 301 299 306 305 302 296 292 293 291 296 296 294 295 294 288 295 295 293 291 287 291 284 289 297 299 306 309 315 322 325
311 312 311 310 297 302 304 304 302 304 284 300 298 303 300 297 298 302 305 301 295 296 295 292 293 294 294 294 297 292 297 295 294 289 286 288 284 286 298 297 300 310 316 319 320
311 311 310 305 299 303 304 302 305 294 285 296 298 296 295 297 299 301 301 302 300 295 295 293 298 297 295 298 298 298 294 291 288 286 282 287 284 283 293 298 302 307 312 319 320
310 310 306 305 297 302 302 303 292 288 296 293 294 296 294 295 297 298 296 293 291 288 287 293 293 296 299 292 294 293 286 280 280 280 280 288 286 286 299 302 304 305 307 311 316
308 307 307 308 305 305 303 297 287 292 291 296 295 296 293 295 295 296 294 291 294 292 288 286 284 293 297 292 288 289 286 280 276 278 280 289 283 290 301 304 306 307 308 308 308
306 304 305 307 308 302 300 289 288 290 294 293 294 291 291 295 294 293 292 291 292 292 287 285 286 295 297 295 294 290 286 290 285 284 281 284 291 301 304 304 304 305 306 305 306
300 302 302 307 305 303 296 292 291 296 296 295 289 292 288 291 291 290 290 294 294 295 293 290 284 292 295 296 296 293 295 285 284 276 275 281 285 288 300 300 301 302 303 305 307
300 298 304 306 305 299 291 292 295 299 298 294 292 290 291 289 290 289 291 294 296 295 294 290 286 286 290 289 289 290 288 289 286 285 279 279 282 299 299 301 301 303 305 306 308
298 295 305 303 295 290 290 294 299 297 299 297 295 294 292 291 289 290 291 293 297 295 290 289 285 281 284 290 298 294 291 289 281 279 287 286 284 300 300 302 303 304 302 307 309
295 295 305 302 289 289 293 297 298 298 296 295 294 295 294 290 285 291 293 299 299 294 291 290 283 280 282 286 289 288 293 291 287 285 286 282 282 300 302 303 304 302 303 304 309
295 291 295 295 292 290 290 292 295 301 297 296 293 295 291 289 290 289 291 298 299 299 302 294 283 283 280 283 286 285 289 293 288 283 282 285 286 292 296 301 303 305 307 306 308
294 290 292 288 290 291 289 293 293 293 296 295 292 293 291 287 288 288 292 293 297 298 293 289 283 284 286 288 289 289 290 289 288 288 284 288 288 293 296 298 302 305 306 305 306
293 292 293 290 291 291 291 290 293 294 293 292 290 294 291 287 290 288 290 289 290 291 288 288 284 285 286 291 290 288 289 289 288 288 290 290 290 297 298 298 301 305 306 305 306
293 293 294 290 290 288 289 292 294 295 295 296 294 291 290 293 294 293 293 292 291 290 287 286 284 281 279 285 285 281 285 287 288 291 289 285 287 292 297 300 302 303 305 306 307
Wind_Speed
18 17 17 17 17 16 16 16 15 14 12 12 11 11 12 13 12 1 5 6 3 1 5 2 4 3 4 3 3 4 6 2 4 5 5 5 8 7 5 2 3 2 3 1 12
19 19 19 18 18 16 15 15 14 13 12 11 10 10 10 11 2 4 9 5 4 4 3 4 3 4 4 2 3 6 5 9 4 3 1 7 2 6 6 2 2 2 4 6 12
20 20 20 19 18 17 16 15 14 13 12 11 9 9 8 5 2 2 3 7 7 4 3 2 3 3 4 2 1 2 5 5 6 6 3 3 7 5 2 3 5 4 5 6 7
21 21 20 20 19 18 17 16 14 13 11 9 7 7 7 2 4 3 6 6 7 5 3 4 4 4 4 3 0 2 4 3 5 3 6 3 4 5 4 8 6 3 4 11 10
20 20 20 20 19 19 18 17 15 12 10 7 6 5 2 1 5 1 8 11 6 5 3 3 3 3 4 2 0 3 2 2 5 8 7 5 5 4 7 10 9 6 7 10 9
20 20 20 20 19 18 17 15 14 12 9 5 4 3 1 3 1 4 7 5 5 4 2 2 5 4 4 2 3 3 3 5 6 5 3 1 4 2 8 1 6 7 8 9 13
20 20 21 21 20 19 18 15 12 11 8 2 5 2 1 5 3 4 4 2 6 4 5 3 3 3 2 2 2 1 4 6 1 2 5 1 5 3 9 9 10 10 9 5 9
21 20 21 21 20 20 20 17 12 4 1 4 5 1 4 2 4 3 2 1 4 3 1 3 4 4 3 1 7 5 6 5 7 6 2 3 7 12 9 4 12 10 10 7 9
22 22 22 22 21 20 19 14 2 3 4 4 0 2 2 1 2 1 4 2 5 3 1 4 5 4 6 5 6 8 2 4 11 4 1 4 9 11 13 6 11 11 9 9 10
24 23 23 23 22 18 17 1 4 4 1 3 3 3 6 4 4 3 3 1 5 5 4 8 6 5 5 7 0 3 3 4 6 6 5 5 9 10 10 6 10 10 8 8 9
24 24 23 23 21 17 6 2 6 5 3 1 4 3 6 7 3 2 3 4 4 10 4 4 7 0 4 4 4 2 2 4 7 7 2 7 7 13 11 9 15 9 7 8 10
25 25 24 23 22 16 2 7 4 4 7 2 3 5 6 3 2 2 2 4 4 2 1 7 0 3 3 3 4 4 2 6 8 4 3 9 9 9 6 4 6 10 8 6 9
24 24 23 22 23 3 2 3 2 4 2 7 4 3 3 6 1 3 3 2 3 2 2 4 4 1 1 5 3 1 2 5 6 7 2 5 7 5 3 5 14 15 8 7 8
23 22 21 24 2 2 0 4 6 4 5 3 3 3 3 1 2 1 3 4 3 2 5 2 3 4 6 5 2 3 3 5 6 3 3 2 8 6 5 7 14 16 13 8 10
25 22 16 8 1 2 3 7 3 5 4 1 1 1 2 4 2 5 3 3 3 2 5 3 6 6 8 3 3 3 6 6 4 4 3 8 2 6 7 7 14 14 14 11 11
26 21 8 3 1 5 7 6 4 6 2 2 3 5 4 7 7 3 7 8 2 5 4 3 2 5 3 2 3 7 5 3 3 3 1 3 3 4 4 6 9 13 14 10 12
27 19 3 1 0 6 5 5 6 4 4 5 3 5 5 6 7 7 5 7 3 3 5 6 3 4 4 5 6 10 7 6 7 5 5 5 2 7 1 3 4 8 10 7 10
27 6 2 3 5 5 4 6 4 2 3 3 4 3 5 7 5 6 3 3 5 5 3 2 4 4 6 3 4 4 3 5 4 3 5 6 7 5 4 5 5 6 7 5 13
16 4 2 5 2 2 7 6 4 0 2 4 2 6 5 4 3 4 3 2 1 2 4 2 3 3 4 3 2 5 4 1 1 2 2 4 4 4 5 4 7 9 8 7 15
3 4 4 9 2 5 7 2 1 2 2 4 3 2 3 5 4 4 0 2 2 4 2 4 3 3 5 4 5 3 2 3 4 2 5 6 4 4 5 2 4 6 9 7 6
5 5 4 9 3 7 5 1 3 3 2 3 2 2 2 1 1 1 2 1 1 3 5 3 3 4 2 4 1 5 3 6 3 3 2 5 7 5 5 7 6 4 3 7 11
3 4 5 5 7 2 2 4 4 3 5 3 4 3 3 3 1 1 2 2 6 5 2 1 5 1 2 1 1 1 3 4 5 5 3 3 7 3 7 9 10 9 0 9 7
3 3 5 5 5 5 7 5 3 6 4 2 2 2 1 3 1 1 2 1 5 3 6 5 1 3 7 5 2 2 3 4 4 2 6 4 7 3 3 5 9 11 11 12 10
4 6 6 7 2 3 5 4 6 8 2 2 2 4 2 1 1 2 2 1 3 2 6 6 4 7 7 7 4 3 4 5 5 4 5 9 8 12 8 9 10 14 15 11 9
5 0 3 5 5 4 1 4 5 7 4 3 2 3 4 3 1 3 2 3 0 3 3 5 4 4 5 6 4 5 8 8 8 8 8 14 10 15 16 11 13 10 7 9 9
3 3 4 1 3 4 4 2 2 6 4 4 0 1 2 4 7 5 4 4 6 1 2 3 2 4 3 7 8 8 8 9 12 13 13 14 18 17 17 7 8 11 9 10 10
1 2 4 2 3 2 1 3 4 4 5 2 1 3 1 7 5 5 6 3 4 7 5 4 5 3 4 3 5 7 7 7 4 2 3 5 9 6 7 7 7 7 6 6 6
Wind_Direction
345 344 341 342 339 336 332 328 324 316 307 305 309 315 320 324 318 179 253 212 194 173 158 97 53 72 55 66 54 129 65 149 246 173 281 316 354 308 300 281 44 110 228 241 134
346 343 343 341 337 334 331 326 323 320 315 305 306 311 320 332 324 266 249 191 204 158 89 107 99 101 54 57 23 84 105 213 236 221 251 293 304 297 18 10 297 199 52 86 141
345 343 341 339 336 331 329 328 325 322 316 309 303 305 310 329 318 275 29 203 183 191 89 91 103 84 77 60 100 147 169 209 272 255 217 260 328 278 340 315 233 259 144 136 137
345 341 338 336 334 330 327 325 324 321 317 308 299 293 299 260 122 350 358 198 160 144 106 83 54 61 89 101 71 71 223 194 276 270 326 283 294 307 227 241 258 232 173 157 168
341 338 336 334 332 329 326 323 320 317 312 310 289 285 287 39 257 78 71 99 101 111 104 106 86 121 102 163 33 152 272 210 270 289 259 326 285 236 260 266 285 300 166 157 162
337 336 335 333 332 328 322 317 314 309 303 281 238 257 254 90 294 114 115 114 122 102 103 131 169 190 110 129 129 222 265 281 290 296 279 257 303 347 269 46 285 292 237 172 169
334 334 335 333 331 329 324 322 313 305 302 231 183 234 44 204 59 112 142 122 165 145 144 204 158 89 149 28 308 345 325 338 43 316 296 82 342 237 275 342 294 261 258 217 182
334 334 334 334 333 332 327 325 310 271 328 144 175 289 237 237 119 141 163 284 180 198 168 162 158 100 54 25 17 38 57 27 299 353 21 83 273 277 283 271 286 269 259 240 183
335 335 333 335 335 335 330 328 108 123 121 167 303 49 356 23 295 165 157 204 135 143 328 96 66 78 27 66 19 6 32 335 323 316 346 80 276 274 299 283 267 264 230 210 247
335 335 333 332 334 336 331 293 102 101 202 225 238 36 340 317 301 123 213 222 92 94 40 44 48 61 31 53 349 300 344 306 258 273 360 286 257 283 281 292 283 289 233 206 215
334 334 333 330 331 336 345 354 12 355 37 180 262 247 293 287 292 14 143 75 52 53 66 11 64 66 248 187 188 209 206 249 265 263 236 269 277 283 311 3 351 309 257 221 215
334 333 331 329 327 326 149 87 143 216 321 258 239 274 253 260 354 315 82 85 68 102 83 23 60 230 221 187 179 181 247 287 282 270 162 292 297 292 35 30 345 339 333 356 359
332 330 328 328 320 358 21 86 27 147 91 301 212 224 238 147 218 246 104 112 104 74 60 136 256 316 62 35 46 268 162 296 264 315 272 331 305 323 336 18 3 1 347 36 66
331 329 328 327 40 305 64 325 317 187 65 280 281 285 126 199 326 198 143 127 48 117 164 222 343 354 52 66 37 24 330 258 269 351 287 46 283 297 6 356 13 3 357 12 44
332 329 330 334 193 109 317 325 308 60 74 184 217 325 43 103 303 11 31 47 143 115 87 299 25 51 48 26 14 247 309 291 276 247 64 338 313 268 26 358 348 360 356 32 46
334 335 341 89 50 255 316 315 57 50 142 10 3 5 48 7 1 36 31 36 39 85 24 49 321 56 343 23 89 291 338 336 51 107 122 242 171 314 1 324 324 340 348 40 51
336 341 136 337 311 326 318 54 48 111 328 345 354 19 86 360 8 30 39 23 57 43 1 358 357 332 28 20 349 29 39 342 353 16 222 281 318 253 121 36 322 342 351 9 48
336 350 186 224 287 334 48 55 83 34 30 328 21 56 78 11 21 11 71 45 17 58 89 91 317 25 331 113 264 318 123 157 271 236 270 316 252 313 54 50 21 17 351 346 59
329 348 9 326 281 75 69 62 177 146 305 5 56 61 16 3 48 50 53 124 267 8 136 119 275 325 33 359 74 313 43 196 36 27 342 265 297 212 142 82 50 11 359 332 93
41 2 313 323 34 56 72 148 25 253 65 49 82 54 29 354 45 42 3 229 175 34 79 195 320 18 307 56 21 90 111 33 13 331 298 293 283 265 218 139 46 65 336 328 70
40 43 276 338 49 46 95 278 320 12 61 76 152 101 104 62 57 313 350 336 174 43 65 102 116 289 27 27 274 1 35 58 104 133 234 311 273 217 240 157 127 41 328 336 330
31 40 321 360 47 28 40 314 327 316 17 54 95 110 145 171 215 239 135 310 328 151 125 59 129 206 221 334 251 64 149 127 119 267 247 260 264 204 233 177 169 145 7 293 323
56 282 324 48 67 357 320 316 322 11 354 45 116 116 129 183 305 190 155 320 12 121 171 187 33 24 348 358 326 186 178 126 110 115 213 218 266 213 253 196 183 170 187 226 233
56 7 336 38 43 78 3 311 334 335 307 55 110 78 96 90 34 197 196 315 358 57 86 96 141 171 199 216 177 248 219 185 155 182 205 228 278 281 242 217 202 202 204 195 193
26 28 172 329 348 358 320 339 344 349 342 11 36 163 156 177 271 233 236 312 295 349 77 115 192 195 252 242 212 225 243 243 197 224 208 271 229 261 267 205 215 209 173 187 192
79 40 359 294 302 327 15 51 330 329 295 311 224 204 141 178 200 241 194 200 221 31 94 11 224 162 265 253 247 259 257 250 255 250 250 260 272 269 285 238 186 183 189 210 207
337 23 109 297 346 9 265 5 320 350 289 315 15 113 242 237 214 219 205 213 219 176 175 147 144 101 265 331 332 297 230 231 250 200 194 228 242 330 300 277 188 152 163 228 238